Kitsissut

KL  EN  DA
ASIAQ
Weather Now GREENLAND SURVEY
Updated [WGT/WGST] Temperature [°C] Wind [m/s] Air pressure [hPa] Relative humidity [%] Precipitation [mm]
Present Wind chill Speed Max
21.01 20:00-14,4-25,58,8 ⇖10,899370n/a
21.01 19:00-14,0-24,07,2 ⇖9,399271n/a
21.01 18:00-14,0-23,76,7 ⇖9,399173n/a
21.01 17:00-13,9-20,93,6 ⇐4,699076n/a
21.01 16:00-14,2-26,912,4 ⇖16,598869n/a
21.01 15:00-13,9-26,512,4 ⇖16,098875n/a
21.01 14:00-13,6-26,312,9 ⇖16,598771n/a
21.01 13:00-13,6-26,312,9 ⇖16,098670n/a
21.01 12:00-13,1-25,612,9 ⇖17,598569n/a
21.01 11:00-12,8-25,212,9 ⇖17,098470n/a
21.01 10:00-12,7-24,912,4 ⇖17,598369n/a
21.01 09:00-12,7-24,611,8 ⇖14,998373n/a
21.01 08:00-12,2-23,510,8 ⇖14,498267n/a
21.01 07:00-11,8-23,712,4 ⇖15,498067n/a
21.01 06:00-11,4-22,911,8 ⇖13,998066n/a
21.01 05:00-10,9-20,68,2 ⇖10,897967n/a
21.01 04:00-10,5-21,110,3 ⇖15,497868n/a
21.01 03:00-10,2-20,08,8 ⇖13,497870n/a
21.01 02:00-9,9-19,07,7 ⇐9,897871n/a
21.01 01:00-9,7-20,812,4 ⇖16,597872n/a
21.01 00:00-9,7-20,611,8 ⇖17,597874n/a
20.01 23:00-9,6-20,110,8 ⇖19,097879n/a
20.01 22:00-9,6-19,28,8 ⇖12,997886n/a
20.01 21:00-9,2-19,711,3 ⇖16,097885n/a
20.01 20:00-8,4-19,112,4 ⇖18,097789n/a
Position: (76.73333333,-73.12083333)

[Back]